Theta_e
325 324 325 325 322 323 322 320 319 320 323 322 318 321 325 321 318 322 325 329 334 334 336 340 337 338 341 338 338 338 336 336 335 335 336 337 338 339 339 342 342 344 345 345 346 346 346 347 347 348 348 348 348 348 349 350 350 350 350 350 350 349 349
324 323 324 325 323 325 322 318 318 322 321 321 322 319 317 316 316 321 324 323 325 328 335 345 343 339 341 340 339 339 337 338 336 335 336 336 338 338 338 340 341 342 344 344 345 346 345 346 346 346 347 347 348 348 348 349 350 350 350 350 350 350 349
324 324 322 323 323 323 322 321 321 323 319 317 321 320 316 316 314 317 323 325 325 327 334 344 342 340 342 341 340 340 338 338 338 337 337 336 337 338 338 339 340 340 342 343 344 344 345 345 345 345 346 347 348 348 348 349 349 349 350 349 350 350 350
323 325 322 320 321 323 323 322 321 323 323 317 318 321 319 318 317 316 320 321 322 330 339 343 342 343 343 340 341 342 339 338 338 338 339 338 337 338 338 339 339 340 341 342 342 343 343 345 345 345 346 347 349 349 349 350 350 350 350 350 350 350 350
321 322 323 321 322 323 321 320 318 319 321 319 318 320 320 322 323 323 320 315 321 337 346 347 348 346 342 340 341 340 339 338 338 340 340 339 339 338 338 339 339 339 340 340 341 342 342 343 344 345 347 348 348 349 349 350 350 351 351 351 350 350 350
319 321 325 325 324 325 323 321 319 318 319 320 317 317 320 322 323 328 324 314 319 338 343 342 351 349 340 340 340 338 339 337 338 340 340 341 341 339 339 339 339 339 340 340 341 341 342 344 345 346 347 347 348 349 350 350 351 351 351 351 351 351 351
321 323 325 325 324 326 325 323 323 321 321 321 315 315 321 321 320 327 327 317 320 340 345 341 350 350 339 336 337 338 337 336 339 340 340 341 341 341 340 340 340 340 340 340 340 341 342 343 345 346 346 347 348 349 349 350 351 351 351 351 351 351 351
323 323 325 325 325 325 324 323 325 323 321 321 320 324 327 323 318 322 324 317 320 338 347 342 343 344 337 333 334 336 336 336 339 339 340 341 341 341 342 340 340 341 340 340 340 341 342 342 344 345 346 347 348 348 350 350 350 350 351 352 352 351 351
319 321 322 321 322 323 323 324 324 323 324 322 322 329 328 321 320 323 320 316 324 345 351 342 339 341 341 338 333 333 335 336 337 338 339 340 341 341 342 341 342 342 341 342 341 341 342 342 343 344 345 346 348 348 350 349 349 350 351 352 352 352 352
318 317 320 323 324 322 322 326 324 323 326 323 320 322 320 320 324 323 320 322 333 348 345 336 339 342 344 343 334 331 335 335 336 338 338 339 340 341 342 342 342 342 342 342 342 342 342 342 343 344 344 346 347 348 349 349 350 350 351 352 352 352 353
322 320 324 331 332 323 319 323 323 323 325 324 323 320 317 324 326 321 328 338 334 333 338 338 340 339 337 340 337 332 334 334 335 337 337 338 339 340 342 343 342 343 343 342 343 343 343 343 343 344 344 345 346 348 348 349 350 350 351 352 352 352 353
325 323 324 327 327 322 320 322 322 323 325 323 323 319 320 331 325 316 334 349 330 329 347 347 342 340 335 336 335 331 330 332 334 336 336 337 338 339 341 341 342 343 343 343 343 343 343 344 344 344 344 345 346 347 348 349 350 351 352 352 352 352 352
323 323 324 324 324 323 323 324 322 322 324 322 321 321 325 332 324 316 334 346 329 331 347 344 342 345 337 332 331 328 329 331 333 334 335 336 336 338 340 340 341 343 343 344 344 343 344 344 344 345 345 345 346 347 348 349 350 351 352 352 351 352 352
322 322 324 324 323 323 322 323 324 323 324 323 321 323 325 327 324 323 335 342 334 331 335 335 335 334 329 327 328 327 329 331 331 333 334 335 336 338 339 340 341 341 342 344 344 344 345 344 345 345 345 345 346 347 348 350 350 350 351 352 351 351 352
323 322 324 324 322 323 321 322 325 324 323 323 322 323 324 325 324 325 331 336 335 334 336 335 329 324 325 332 333 332 332 331 333 334 335 335 336 337 338 340 341 341 342 343 344 344 345 344 345 346 346 346 347 347 348 349 350 350 351 352 352 351 351
324 322 323 324 323 324 321 320 323 323 322 322 322 322 324 324 324 325 325 326 330 335 336 336 332 328 335 343 337 331 333 332 333 334 335 336 336 336 338 339 340 342 342 342 344 344 344 345 345 345 346 347 347 348 348 348 349 350 351 352 352 351 351
324 322 321 323 324 324 321 320 322 323 323 323 322 324 326 325 324 324 322 322 327 332 331 331 332 333 336 339 331 327 332 336 335 335 334 335 336 337 338 339 340 342 342 342 343 344 344 345 345 345 345 346 347 348 348 348 350 351 351 352 352 352 352
323 320 321 325 326 322 322 325 326 325 325 325 323 323 325 324 325 325 324 325 327 328 328 330 331 330 330 330 328 330 335 336 336 340 339 337 337 337 337 339 340 341 342 343 343 343 344 344 344 345 345 345 346 346 347 348 350 351 351 352 352 352 353
322 322 324 328 331 329 328 332 331 325 323 326 326 327 329 328 327 325 326 330 330 330 331 330 326 328 332 335 338 341 341 339 338 340 341 341 341 339 337 339 340 340 342 343 343 344 344 344 345 345 346 346 346 346 348 349 349 350 351 351 352 353 353
323 326 327 330 334 333 331 334 335 331 330 327 325 331 340 345 343 334 329 335 342 343 336 327 323 330 338 343 346 347 347 345 342 339 340 342 342 340 340 339 339 340 341 341 343 344 344 345 345 346 346 346 346 347 348 349 349 350 351 351 352 353 354
322 326 330 332 331 329 331 336 336 334 335 333 329 330 341 355 354 344 337 342 357 358 341 327 326 333 340 347 351 349 349 349 345 341 340 340 341 342 342 341 341 341 340 340 341 342 344 345 345 345 346 345 347 347 347 348 349 349 351 351 352 353 354
326 328 332 334 329 329 335 336 333 333 333 332 332 332 340 358 356 346 347 352 359 358 343 330 330 333 341 355 358 351 349 350 346 342 339 337 339 341 340 341 342 341 342 343 342 342 343 344 344 345 345 345 346 347 347 347 349 350 351 351 351 351 353
329 332 335 335 331 334 339 334 331 332 331 334 335 329 337 357 354 345 350 355 353 351 340 332 334 335 344 368 366 353 350 351 348 343 341 338 337 338 339 341 342 342 344 344 343 344 344 343 344 345 344 345 347 347 347 346 348 349 350 350 351 351 351
332 334 335 334 334 339 338 332 332 333 332 335 333 326 337 356 351 343 348 352 352 348 338 338 350 352 353 368 364 352 349 351 350 347 345 343 341 340 339 340 342 343 346 346 345 345 344 343 345 344 345 347 347 347 347 347 347 348 347 347 348 349 350
338 336 335 334 335 338 336 331 332 334 334 333 328 330 343 350 345 343 347 347 347 345 341 348 360 355 350 354 352 348 350 351 350 349 349 347 347 345 342 341 339 339 342 344 347 347 346 345 345 344 345 346 347 347 348 348 346 343 342 343 345 346 350
338 337 336 335 335 335 333 332 333 335 337 335 332 335 340 342 343 346 347 344 346 346 343 346 349 346 346 350 350 349 350 350 349 349 348 348 348 349 347 346 342 338 337 339 341 344 346 347 347 347 347 346 346 348 349 348 345 340 341 343 343 345 350
335 336 336 336 337 336 333 332 334 335 337 337 331 331 337 343 345 346 345 344 345 345 344 344 345 346 348 349 349 349 349 349 349 348 348 347 348 347 347 347 347 345 343 340 339 340 341 343 345 347 349 350 350 349 349 348 347 347 348 348 348 350 352
337 336 335 335 337 336 333 333 334 333 333 332 328 330 338 345 345 343 344 344 344 345 346 344 344 345 346 346 348 349 349 349 349 348 348 348 348 348 347 347 347 348 348 346 344 343 343 344 345 346 348 351 353 353 352 350 349 350 351 351 352 353 354
337 337 336 336 335 334 332 333 333 331 329 328 327 330 335 340 342 343 343 343 343 345 346 344 343 344 344 345 346 347 347 348 348 348 348 348 348 348 348 347 347 348 348 347 345 345 343 343 345 349 352 353 354 353 354 354 354 353 353 353 354 354 355
336 335 334 334 334 333 332 331 330 329 327 325 325 326 329 333 338 341 341 342 342 342 343 343 342 342 343 344 345 345 346 346 346 347 348 347 348 348 348 348 348 348 347 348 348 348 347 344 342 344 350 355 357 357 356 356 357 357 356 356 355 354 355
335 334 333 333 333 332 331 330 328 327 327 325 324 324 324 328 332 334 336 337 339 339 341 341 340 340 342 343 343 344 345 345 345 346 346 346 346 346 346 347 347 346 347 347 348 349 350 350 349 347 347 352 358 361 361 360 359 358 359 359 358 358 357
334 334 332 332 332 330 329 328 327 326 326 326 325 325 325 327 329 330 333 336 338 339 340 340 340 341 341 342 343 343 344 344 345 345 345 345 345 344 344 345 344 345 346 345 346 347 347 348 350 351 352 353 357 360 363 363 362 362 361 360 360 360 359
332 333 332 331 332 332 329 328 327 326 326 326 326 325 325 326 327 329 333 335 336 337 338 339 340 341 341 342 343 343 343 344 344 345 345 345 344 344 344 344 345 345 346 347 348 349 349 348 348 349 351 353 356 358 362 363 363 363 362 362 362 362 360
331 333 332 332 335 336 332 328 327 326 326 326 326 324 322 322 324 328 331 333 335 336 338 339 339 340 341 342 342 343 344 345 345 345 345 344 344 344 344 344 345 346 348 349 350 352 352 352 352 351 351 352 353 355 356 357 358 358 359 359 361 362 362
330 331 330 331 333 334 330 327 326 326 325 325 325 324 321 320 323 326 330 334 335 336 337 338 339 340 341 341 342 343 344 344 344 345 345 345 344 344 343 344 345 346 347 348 350 352 353 352 352 353 353 353 354 354 355 355 355 356 356 358 359 361 362
328 329 329 330 331 330 328 326 325 324 324 323 323 323 321 320 321 323 328 332 334 336 337 338 339 340 340 341 341 342 343 344 345 345 345 344 343 343 343 344 344 346 347 348 349 350 350 350 351 352 352 352 353 353 353 354 354 355 356 357 358 359 360
327 327 327 328 329 329 327 326 324 323 322 322 322 322 321 320 319 320 322 325 329 332 334 335 336 337 338 338 339 339 340 342 343 344 344 345 344 344 344 344 345 346 346 347 348 348 349 349 350 351 351 350 350 350 350 351 353 354 355 356 356 357 357
Wind_Speed
10 13 10 10 10 6 3 5 8 8 7 7 6 5 4 2 4 5 3 4 4 3 5 5 9 13 15 18 22 24 27 30 29 30 35 41 45 47 49 51 53 54 55 56 57 57 57 57 58 58 59 60 59 58 57 57 56 56 55 54 52 50 49
13 15 11 8 11 10 5 5 8 3 3 6 5 3 5 5 6 5 2 5 5 3 5 4 6 10 12 14 15 18 22 23 25 30 37 43 47 50 50 52 54 55 56 56 57 58 58 58 59 59 60 60 60 59 58 58 57 57 56 55 53 52 50
10 10 9 6 8 12 8 5 7 6 3 6 4 3 6 6 6 6 3 5 5 5 5 4 7 10 11 12 13 15 17 17 22 30 37 43 47 47 47 49 52 55 56 56 57 58 58 58 59 60 60 60 59 59 59 58 58 57 56 55 54 53 52
8 5 7 7 8 10 6 2 5 5 4 6 6 4 4 4 5 5 3 4 5 6 6 7 10 11 12 13 13 13 15 18 24 30 35 41 44 44 47 50 52 55 57 57 58 59 59 59 59 59 58 58 58 59 59 59 58 57 56 56 55 54 53
7 4 5 10 10 9 6 5 6 6 3 3 5 4 3 4 5 3 3 6 7 5 5 9 11 11 12 13 13 14 16 23 30 34 37 41 43 46 49 51 53 56 57 57 58 59 59 59 58 57 56 56 58 58 58 58 58 57 57 57 56 55 54
6 5 7 11 13 12 10 7 7 8 5 3 4 5 2 3 5 5 5 8 9 5 5 8 10 11 11 13 14 13 16 26 34 38 41 42 44 48 50 51 53 55 57 57 57 58 57 55 54 54 54 55 56 57 58 58 57 58 58 58 57 56 53
7 8 9 11 13 13 11 9 8 7 5 5 6 7 4 3 3 2 3 6 8 5 7 8 9 10 11 13 13 11 16 26 33 37 41 42 44 47 49 50 52 54 56 57 57 56 54 53 53 53 54 55 56 57 58 58 58 58 58 58 57 56 54
5 6 7 5 7 10 9 9 9 8 8 8 7 6 5 4 4 3 2 6 6 4 6 8 7 8 10 12 14 14 16 23 29 34 38 39 41 44 46 48 50 52 54 54 53 52 52 52 52 53 54 55 56 57 57 58 59 59 58 57 56 56 55
6 5 6 6 5 6 4 6 10 12 14 12 6 3 3 4 6 7 5 7 6 5 4 6 4 5 7 8 13 18 19 21 27 31 33 36 38 40 43 45 47 49 50 49 49 51 51 52 52 53 54 55 55 56 56 58 58 58 57 56 56 56 55
8 6 6 7 6 4 3 5 10 14 17 17 10 4 4 6 5 7 7 6 5 7 5 7 6 6 7 7 10 15 20 25 28 30 31 33 35 38 42 43 45 48 48 47 49 51 53 53 53 54 55 55 55 55 56 57 57 57 57 56 55 55 55
6 5 6 6 6 7 9 11 11 12 16 18 13 7 7 6 4 6 8 6 4 6 5 5 7 7 9 9 8 11 18 25 28 31 34 33 33 38 43 44 46 47 47 47 49 52 54 54 54 55 55 55 55 55 56 56 56 56 56 56 55 55 55
6 6 11 11 8 11 14 14 13 13 12 15 16 13 9 9 7 9 8 8 6 7 7 7 8 8 9 10 10 11 17 23 26 29 33 33 34 36 39 41 42 44 47 48 50 52 53 54 54 54 54 55 55 56 56 55 55 55 55 55 55 55 55
12 10 12 13 11 12 12 14 16 16 13 15 18 16 11 11 11 11 8 11 11 8 8 8 8 9 10 10 11 12 15 20 23 25 28 31 34 36 38 38 40 43 48 50 51 52 53 53 53 53 53 54 54 54 54 54 54 55 55 55 55 55 55
14 13 12 11 10 11 11 12 17 17 16 17 18 17 13 14 15 11 9 12 12 9 10 10 12 16 14 9 10 14 16 18 21 23 26 30 34 37 40 42 43 46 49 51 52 53 53 53 53 53 53 54 54 54 54 53 54 55 55 55 55 56 56
10 11 10 10 9 10 12 13 13 16 19 19 19 17 13 11 12 10 8 10 9 8 8 9 13 17 13 7 8 13 18 19 18 19 24 30 34 36 39 42 45 47 49 51 52 52 53 54 54 54 55 54 54 54 54 54 54 55 54 54 55 56 56
7 7 8 13 16 11 10 14 15 16 17 17 16 13 11 11 12 11 9 8 7 8 8 8 9 9 8 7 8 12 18 18 16 19 23 27 32 36 38 40 42 45 47 49 50 52 53 54 54 54 54 54 53 53 53 54 54 54 54 54 55 56 56
6 8 10 13 13 8 8 15 17 16 14 13 12 10 10 12 13 11 11 10 9 10 8 6 8 8 8 10 11 11 13 14 15 20 22 25 31 35 38 39 40 43 46 47 50 52 53 54 55 55 54 53 53 53 53 53 53 52 53 54 55 55 55
6 11 12 10 6 6 10 9 11 14 13 11 10 10 11 12 11 9 9 10 11 11 8 9 11 10 8 9 9 6 5 7 12 18 21 24 29 33 36 37 39 42 43 45 47 50 52 54 55 55 54 53 53 53 52 52 51 52 53 54 55 55 55
6 8 7 5 4 7 8 5 4 12 14 11 11 10 10 11 11 9 7 8 11 10 8 10 10 5 6 6 5 4 3 2 7 13 18 20 24 30 33 35 38 40 41 43 45 47 49 51 52 52 51 51 51 51 50 50 51 52 53 53 54 54 55
4 4 2 4 6 9 11 6 4 3 3 5 9 9 7 6 7 8 8 9 9 7 8 10 10 10 13 12 11 11 9 6 2 6 11 14 18 25 30 33 36 36 36 40 43 46 49 50 49 49 48 48 49 49 49 50 51 51 52 53 53 53 54
3 3 4 4 6 10 8 3 6 7 4 4 5 7 7 5 5 7 9 9 8 6 7 11 17 17 11 7 8 12 14 13 8 3 3 8 12 18 22 27 30 31 31 34 38 43 48 49 48 46 44 45 48 49 49 49 49 50 51 52 52 53 53
3 3 4 3 4 5 3 4 9 8 8 11 11 7 7 6 4 5 8 9 9 8 8 13 18 14 7 2 4 9 15 14 11 9 4 2 8 12 15 18 21 24 26 29 33 37 41 43 44 43 42 43 47 48 48 47 47 48 50 51 52 52 53
3 2 2 2 4 5 2 9 15 18 18 15 7 3 6 6 4 0 5 7 7 9 10 12 12 8 6 4 5 8 13 15 14 11 8 5 0 6 11 15 19 20 22 24 26 30 34 37 39 40 42 44 46 47 46 45 45 47 49 50 51 51 52
4 2 2 3 3 4 5 12 17 23 24 12 2 4 7 6 4 4 5 3 3 7 11 10 6 4 5 6 3 5 9 12 13 12 10 9 7 2 3 9 14 17 19 21 23 26 31 34 36 40 42 44 45 47 46 45 45 46 46 47 47 48 49
4 3 1 3 4 3 8 15 21 25 20 4 8 6 7 4 4 7 8 5 5 8 10 9 6 4 5 5 4 6 9 11 12 12 10 9 8 6 3 1 6 9 13 17 21 24 27 30 34 37 39 41 43 45 45 46 46 46 44 43 44 45 47
2 3 1 3 4 2 12 20 21 17 8 4 5 9 16 10 3 10 13 12 15 18 19 18 17 14 11 10 10 11 11 11 10 10 8 7 7 6 5 3 2 5 8 11 14 17 20 24 28 31 33 36 39 41 42 45 47 46 44 44 44 45 47
2 3 1 3 5 3 15 20 14 9 6 3 9 17 18 9 4 12 15 16 21 26 27 25 24 21 18 16 15 14 13 11 9 8 6 6 7 6 6 6 4 3 4 6 9 11 14 19 23 26 27 30 33 36 40 43 45 45 45 45 45 46 48
3 4 4 2 3 5 13 11 5 5 10 14 17 15 10 6 2 9 17 19 22 29 30 27 25 22 20 18 16 15 14 12 10 8 6 5 6 6 6 6 7 6 4 3 4 7 10 13 17 21 24 25 28 32 36 39 42 45 45 45 45 46 48
2 3 4 3 1 6 9 6 5 11 18 23 23 17 9 8 4 8 17 19 20 26 28 27 24 22 20 18 17 15 14 12 10 8 6 5 4 4 4 4 5 6 6 6 5 5 6 7 9 12 16 20 24 28 32 35 40 43 44 43 43 45 46
1 3 1 3 2 4 7 7 9 14 21 26 27 22 14 9 7 11 16 18 19 21 24 26 26 23 21 21 20 17 16 14 11 9 7 5 4 4 4 4 4 5 6 7 7 6 7 7 7 8 10 13 18 22 25 29 33 37 40 41 42 42 44
1 2 1 2 4 3 7 11 14 15 17 19 22 22 17 10 12 15 17 20 21 22 23 27 27 24 22 22 21 19 17 16 14 11 9 7 6 6 6 7 7 7 7 7 7 7 7 7 7 9 10 11 14 16 19 23 27 32 35 38 40 41 42
2 3 3 4 8 8 9 13 15 15 13 12 13 15 15 12 13 16 19 22 22 23 24 25 25 24 22 21 20 19 17 16 15 14 13 12 10 9 10 10 10 10 10 9 9 9 8 8 8 9 11 12 15 17 18 20 23 26 29 32 35 38 40
2 3 2 3 8 7 8 10 11 11 8 7 9 11 11 11 12 16 21 23 23 24 24 22 21 23 22 20 18 17 16 15 15 14 13 13 12 12 12 11 9 9 9 9 9 9 8 8 8 9 11 13 15 17 19 21 22 23 25 27 30 34 38
3 2 2 2 5 4 3 5 7 7 5 5 7 7 6 7 11 18 23 25 24 24 23 21 21 23 23 20 17 17 17 16 15 14 13 12 12 11 10 9 7 6 7 7 7 7 6 6 6 7 10 12 13 15 16 18 19 21 23 25 27 31 35
3 3 4 4 4 4 5 6 8 7 5 6 8 7 3 3 10 18 24 27 27 26 25 23 22 23 23 20 18 19 19 17 15 14 13 12 11 10 10 8 6 5 5 6 7 6 6 7 7 7 8 10 12 13 14 14 15 17 20 22 25 29 33
2 3 4 4 4 7 9 11 11 11 10 9 9 9 7 5 9 17 24 27 28 29 28 26 24 24 23 21 19 20 20 18 16 16 14 13 12 12 11 10 8 6 5 5 6 7 7 8 8 8 9 10 11 13 13 13 13 12 14 17 20 23 27
4 5 4 3 3 10 14 14 13 13 13 11 8 7 8 7 10 16 21 23 26 26 26 26 25 22 21 20 19 19 18 18 17 16 15 14 14 13 12 12 10 7 4 4 5 6 8 8 8 7 7 7 9 10 11 12 12 12 14 16 19 22 24
Wind_Direction
202 202 195 173 175 187 177 159 192 209 173 174 224 238 212 192 264 256 205 238 270 277 277 247 199 203 204 206 209 209 214 213 208 207 208 209 211 211 211 212 213 215 216 216 215 215 215 215 215 215 215 216 217 217 218 219 219 220 222 224 226 227 228
229 209 197 196 188 172 148 189 197 159 140 205 205 218 237 231 251 265 217 228 246 222 254 256 189 200 210 210 210 212 214 208 203 206 208 210 212 212 212 213 214 216 217 217 216 216 217 217 217 217 217 218 217 218 219 219 218 219 221 224 226 227 228
223 199 196 234 221 202 202 195 172 145 178 217 187 184 222 215 238 271 278 253 233 202 224 224 192 202 210 211 213 215 215 206 204 208 208 211 213 212 212 213 214 216 217 218 217 218 218 218 219 220 219 217 217 218 219 220 221 221 223 224 225 227 228
198 181 183 211 229 228 229 159 166 178 178 193 192 186 193 192 226 259 278 264 237 217 207 189 195 208 206 207 210 213 217 211 208 209 210 211 212 211 212 213 214 216 218 219 219 219 219 219 220 220 218 217 216 218 218 219 221 221 222 223 224 226 227
194 192 187 199 209 215 215 193 193 204 191 183 201 199 171 169 190 209 235 253 250 240 205 183 191 206 206 205 206 209 215 212 210 211 211 211 211 211 212 213 213 215 218 219 220 220 221 220 220 219 217 217 217 217 218 219 219 219 220 222 223 225 227
205 212 201 200 204 203 203 205 202 203 189 138 179 219 216 169 188 186 200 249 260 247 203 188 192 202 207 206 206 212 216 212 212 214 213 212 211 211 212 212 213 215 217 219 219 220 220 219 218 217 217 217 217 217 218 219 219 219 221 222 223 225 227
215 221 213 204 208 206 202 206 202 195 180 146 180 217 217 201 226 174 167 253 263 237 194 191 195 200 209 212 205 209 221 216 215 216 215 214 213 213 213 213 214 216 218 219 219 218 219 218 217 217 217 217 217 217 218 218 219 220 221 222 223 225 227
255 254 253 243 213 200 203 212 199 189 195 192 197 203 182 201 219 150 182 255 261 248 199 196 214 211 208 218 211 209 223 224 222 222 218 216 215 214 214 214 214 216 218 218 217 216 217 217 217 217 217 218 218 217 217 217 220 221 221 221 222 224 226
252 262 264 262 224 198 208 215 203 203 204 198 197 169 152 219 211 166 188 240 249 278 230 189 225 231 207 221 217 212 221 226 228 229 223 219 216 213 213 214 214 216 218 217 216 216 217 217 217 217 218 218 217 217 217 218 220 221 220 220 221 223 225
231 229 230 225 200 199 231 216 209 210 205 199 197 176 185 227 216 169 187 223 252 291 265 188 205 221 213 233 228 217 223 227 230 231 228 224 219 213 213 214 214 215 217 216 216 216 217 218 218 218 218 218 217 218 219 219 219 219 219 219 221 223 224
242 254 274 250 182 188 216 218 216 216 212 205 197 195 202 197 195 206 204 186 209 270 262 226 240 237 223 234 233 218 223 226 228 230 230 228 222 217 215 215 214 214 215 216 216 217 219 219 219 219 219 218 218 218 219 219 218 218 218 219 221 223 224
273 276 290 280 235 212 212 211 216 220 217 208 205 214 203 155 176 229 212 171 193 240 249 247 253 246 236 237 233 224 226 230 230 229 229 227 224 221 219 218 215 212 214 217 217 218 219 220 219 220 220 220 219 219 219 218 217 217 217 218 221 223 224
307 296 290 283 265 242 220 206 211 216 215 210 214 219 197 166 198 229 203 183 200 224 233 234 237 237 237 236 240 247 247 242 239 234 229 226 224 220 218 219 218 214 214 217 217 218 220 220 220 220 220 220 219 219 219 217 217 218 218 218 221 223 223
311 304 295 285 269 255 243 221 209 209 214 214 217 218 202 196 215 221 193 194 207 213 214 216 225 234 237 230 236 256 256 243 239 235 228 226 225 221 218 219 219 218 217 217 218 219 219 220 220 220 220 220 219 219 219 217 217 218 218 218 220 223 224
306 303 313 321 302 263 250 245 223 211 213 216 219 216 203 205 223 224 200 199 220 240 228 219 229 238 247 246 230 243 248 241 235 233 229 229 227 223 221 220 218 218 217 217 217 218 219 220 220 220 222 221 220 219 218 218 219 219 218 219 221 223 227
297 305 336 334 323 303 258 246 236 220 212 214 220 214 196 193 204 215 219 212 230 249 236 234 249 249 251 252 231 234 245 243 231 230 235 237 234 229 225 222 218 216 216 215 215 217 219 221 220 221 222 222 220 218 218 220 221 219 217 219 221 224 227
288 301 320 319 319 312 257 235 227 223 219 214 216 216 210 199 186 196 221 221 222 228 211 210 243 244 238 245 242 241 254 255 239 234 240 244 242 236 230 225 221 218 218 218 219 220 221 221 222 223 224 223 223 223 223 223 220 216 217 220 222 225 226
285 295 310 315 293 245 249 237 204 211 221 211 206 215 218 208 194 199 216 215 221 225 195 184 217 231 232 235 234 233 265 270 252 246 247 247 245 240 234 230 227 224 222 222 223 224 223 224 225 225 224 226 228 228 226 222 218 217 220 222 223 225 225
276 296 314 310 247 231 264 290 189 207 212 194 194 214 222 216 210 206 207 216 227 224 197 202 221 203 128 125 114 82 56 279 253 254 256 251 244 238 234 232 230 229 227 225 224 225 225 226 225 223 222 226 228 227 224 221 220 221 222 223 224 225 224
261 290 283 246 258 283 292 315 16 340 250 181 188 210 239 244 213 193 198 217 223 207 197 209 200 154 123 98 69 56 50 43 10 261 263 259 246 236 232 231 230 230 232 232 231 230 228 226 224 222 223 226 226 225 223 222 222 222 222 222 223 223 223
223 245 260 258 289 303 298 324 18 7 335 297 263 232 236 248 209 187 195 207 202 183 177 175 166 155 133 79 41 36 37 41 50 53 277 266 249 235 230 230 230 232 236 238 238 235 230 227 225 224 226 227 226 223 222 222 222 222 221 222 224 224 225
212 232 268 291 288 274 269 320 329 330 322 311 302 270 245 251 241 199 188 185 176 158 152 161 160 147 116 65 338 8 25 36 50 63 63 288 260 247 239 237 238 241 243 241 239 235 231 229 228 226 226 226 224 221 221 222 222 221 221 224 226 227 228
241 220 234 267 257 237 285 334 330 329 325 316 306 270 255 264 291 251 159 173 173 155 151 160 155 134 130 195 274 347 22 36 46 59 72 72 40 248 246 244 243 246 249 245 239 234 230 229 228 225 224 225 223 221 222 223 223 222 224 227 228 229 231
216 180 219 252 257 259 326 342 330 320 317 315 147 184 243 267 340 45 100 138 173 144 141 139 118 104 155 185 264 3 39 47 50 57 63 68 76 99 226 238 240 243 244 242 239 237 235 233 230 226 225 224 223 224 224 224 224 227 230 233 234 235 236
181 149 193 276 270 283 345 340 323 316 314 292 155 194 258 296 31 77 96 103 104 108 117 117 94 81 118 127 98 70 68 65 62 61 60 63 66 67 71 237 244 245 241 236 235 238 239 237 234 231 229 228 227 227 226 224 228 235 239 240 241 241 238
166 135 135 297 273 340 357 334 318 324 333 170 186 292 306 315 78 109 103 101 100 94 92 100 107 109 105 96 86 76 68 64 60 57 61 66 67 69 63 31 292 264 259 248 240 240 240 238 237 236 235 235 235 234 230 229 235 240 241 241 242 242 238
88 107 123 287 252 326 351 336 328 360 21 280 293 305 306 312 101 114 103 100 105 103 99 102 108 110 103 94 88 81 75 72 64 57 55 50 47 52 48 36 21 342 297 273 262 259 255 251 248 245 242 241 240 237 235 237 240 239 237 237 238 238 235
129 168 186 203 226 306 345 344 328 346 339 324 323 319 306 309 7 106 100 99 108 111 110 108 107 105 100 94 92 88 81 77 73 67 59 49 39 32 27 26 23 15 0 322 290 277 271 269 266 260 256 252 246 241 241 243 241 238 236 236 236 235 234
140 165 181 147 174 305 332 347 333 345 355 353 349 347 343 335 348 98 103 103 108 111 111 110 105 101 98 94 91 87 81 74 70 64 54 40 30 18 9 6 359 353 350 346 339 320 303 297 290 281 272 263 256 253 251 248 244 242 240 238 236 236 236
73 76 82 102 95 313 328 11 18 11 13 7 358 352 352 5 55 95 104 107 110 110 111 109 103 100 100 97 91 86 81 74 67 60 48 27 9 355 344 339 335 331 329 326 322 321 316 305 298 297 288 270 262 260 256 252 250 248 246 243 240 238 238
183 115 183 150 106 21 356 27 37 28 20 14 4 353 350 17 75 94 99 104 107 107 105 103 101 100 98 95 90 85 80 75 67 58 48 30 8 350 343 340 334 326 322 315 309 307 305 299 292 287 280 274 269 263 257 254 252 250 248 245 242 239 238
208 138 185 166 116 81 37 44 51 39 24 17 13 6 2 24 64 87 95 97 99 99 98 97 98 96 91 88 86 80 74 69 63 55 48 37 20 5 356 349 339 330 324 317 309 303 296 292 285 274 267 265 265 264 261 257 254 252 250 247 244 241 239
186 136 189 164 126 93 45 54 71 63 41 25 28 28 25 35 59 82 92 94 94 95 95 96 96 92 86 83 81 75 67 60 52 46 41 32 20 9 4 1 352 340 329 319 312 307 298 287 275 265 261 257 255 258 260 259 258 258 257 254 250 246 242
200 189 216 175 142 126 75 80 95 93 82 72 65 51 31 47 79 90 94 95 95 95 95 95 94 92 87 83 79 73 66 59 50 42 33 23 14 11 11 12 7 356 348 340 330 321 315 309 294 277 270 268 266 265 265 267 268 267 265 261 255 250 247
225 208 176 154 131 126 137 130 122 122 125 116 113 111 73 57 94 101 101 101 100 99 97 96 93 92 90 84 79 74 70 63 56 48 38 28 23 20 18 17 14 9 1 353 345 343 343 337 325 308 297 293 289 285 282 283 282 278 273 267 259 254 249
256 202 170 156 136 138 143 136 130 135 137 126 120 126 125 105 99 102 103 104 103 102 100 98 95 93 91 86 80 77 74 68 62 57 52 46 41 32 26 26 27 21 2 344 341 343 338 330 324 323 321 315 308 304 300 295 289 282 270 257 249 244 239
263 243 253 263 167 147 140 132 131 138 138 132 131 137 136 125 109 104 104 105 105 103 102 100 97 94 90 87 83 79 75 70 68 67 65 61 55 47 40 38 35 26 1 325 313 315 319 324 331 331 326 322 319 315 311 305 297 283 266 253 246 239 232